This demonstration page uses our WeatherBlox Daily Observations layout. Learn more.

Left ArrowRight Arrow

34.02893, -84.19858

Hourly Observations for December 31, 2018

Temp ( °F °C ) Dew Point ( °F °C ) Humidity (%) Winds ( mph kmh ) Pressure ( in mb ) Visibility ( mi km ) Precip ( " mm )
12:53 am 00:53 Cloudy with Mist and Fog 53 11.7 53 11.7 100 100 E 3 6 30.14 1021 1 1 0.00 0.03
1:15 am 01:15 Cloudy with Fog 53 11.7 53 11.7 100 100 Calm 30.12 1020 1 1 0.00 0.00
1:42 am 01:42 Mostly Cloudy with Mist and Fog 53 11.7 53 11.7 100 100 Calm 30.12 1020 1 1 0.00 0.00
1:50 am 01:50 Mostly Cloudy with Fog 54 12 54 12 100 100 ENE 3 6 30.12 1020 1 1 0.00 0.00
1:53 am 01:53 Mostly Cloudy with Fog 53 11.7 53 11.7 100 100 Calm 30.14 1021 1 1 0.00 0.00
2:53 am 02:53 Mostly Cloudy with Fog 53 11.7 53 11.7 100 100 VRB 3 6 30.14 1021 1 1 0.00 0.00
3:53 am 03:53 Mostly Cloudy with Fog 53 11.7 53 11.7 100 100 ESE 3 6 30.12 1020 0 0 0.00 0.00
4:53 am 04:53 Mostly Cloudy with Fog 53 11.7 53 11.7 100 100 VRB 3 6 30.11 1020 1 1 0.00 0.00
5:44 am 05:44 Mostly Cloudy with Mist and Fog 53 11.7 53 11.7 100 100 VRB 3 6 30.09 1019 1 1 0.00 0.00
5:51 am 05:51 Cloudy with Mist and Fog 54 12 54 12 100 100 VRB 5 7 30.12 1020 1 2 0.00 0.00
5:53 am 05:53 Cloudy with Mist and Fog 53 11.7 53 11.7 100 100 VRB 3 6 30.11 1020 1 2 0.00 0.00
6:35 am 06:35 Cloudy with Mist and Fog 53 11.7 53 11.7 100 100 VRB 3 6 30.12 1020 1 1 0.00 0.00
6:43 am 06:43 Cloudy with Fog 54 12.2 54 12.2 100 100 ESE 5 7 30.12 1020 1 1 0.00 0.00
6:46 am 06:46 Mostly Cloudy with Mist and Fog 54 12.2 54 12.2 100 100 VRB 5 7 30.12 1020 1 1 0.00 0.00
6:53 am 06:53 Cloudy with Mist and Fog 54 12.2 54 12.2 100 100 VRB 5 7 30.11 1020 1 1 0.00 0.00
6:58 am 06:58 Cloudy with Mist and Fog 54 12.2 54 12.2 100 100 VRB 5 7 30.12 1020 1 2 0.00 0.00
7:53 am 07:53 Cloudy with Fog 55 12.8 55 12.8 100 100 VRB 5 7 30.13 1020 1 1 0.00 0.00
8:53 am 08:53 Cloudy with Fog 56 13.3 56 13.3 100 100 SE 6 9 30.14 1021 0 0 0.00 0.00
9:53 am 09:53 Cloudy with Fog 57 13.9 57 13.9 100 100 SE 6 9 30.14 1021 0 0 0.00 0.00
10:53 am 10:53 Cloudy with Fog 59 15 59 15 100 100 SE 5 7 30.12 1020 1 1 0.00 0.00
11:53 am 11:53 Cloudy with Mist and Fog 61 16.1 61 16.1 100 100 S 7 11 30.08 1019 1 2 0.00 0.03
12:00 pm 12:00 Cloudy with Mist and Fog 61 16.1 61 16.1 100 100 SSE 7 11 30.09 1019 3 4 0.00 0.00
12:45 pm 12:45 Cloudy with Fog 62 16.7 62 16.7 100 100 SSE 7 11 30.00 1016 1 1 0.00 0.00
12:53 pm 12:53 Cloudy with Fog 62 16.7 62 16.7 100 100 SSE 7 11 30.03 1017 1 1 0.00 0.00
1:05 pm 13:05 Cloudy with Mist and Fog 63 17.2 62 16.7 97 97 S 7 11 30.03 1017 3 5 0.00 0.00
1:30 pm 13:30 Cloudy with Mist and Fog 64 17.8 63 17.2 96 96 S 7 11 30.00 1016 4 6 0.00 0.00
1:53 pm 13:53 Cloudy with Mist and Fog 65 18.3 63 17.2 93 93 SSE 8 13 30.01 1016 6 10 0.00 0.00
2:53 pm 14:53 Cloudy 67 19.4 63 17.2 87 87 S 14 22 29.98 1015 8 13 0.00 0.00
3:53 pm 15:53 Mostly Cloudy 68 20 61 16.1 78 78 S 15 24 29.96 1015 8 13 0.00 0.00
4:53 pm 16:53 Cloudy 68 20 61 16.1 78 78 S 8 13 29.99 1016 8 13 0.00 0.00
5:53 pm 17:53 Partly Cloudy 67 19.4 60 15.6 79 79 S 10 17 29.98 1015 9 14 0.00 0.00
6:48 pm 18:48 Mostly Cloudy 66 19 61 16 83 83 S 10 17 30.00 1016 9 14 0.00 0.00
6:53 pm 18:53 Mostly Cloudy 66 18.9 60 15.6 81 81 S 12 19 30.02 1017 9 14 0.00 0.00
7:00 pm 19:00 Cloudy 66 18.9 60 15.6 81 81 S 10 17 30.00 1016 9 14 0.00 0.00
7:53 pm 19:53 Cloudy 66 18.9 60 15.6 81 81 S 10 17 30.00 1016 9 14 0.00 0.00
8:25 pm 20:25 Cloudy 66 18.9 61 16.1 84 84 S 9 15 30.00 1016 9 14 0.00 0.00
8:53 pm 20:53 Cloudy 65 18.3 62 16.7 90 90 S 12 19 30.01 1016 9 14 0.00 0.03
9:53 pm 21:53 Cloudy with Light Rain 64 17.8 63 17.2 96 96 S 10 17 30.01 1016 4 6 0.01 0.25
10:04 pm 22:04 Cloudy with Light Rain 64 17.8 63 17.2 96 96 SSW 12 19 30.00 1016 3 5 0.01 0.25
10:20 pm 22:20 Cloudy with Mist and Fog 64 17.8 63 17.2 96 96 SSW 8 13 30.00 1016 6 10 0.01 0.25
10:31 pm 22:31 Cloudy with Mist and Fog 64 17.8 63 17.2 96 96 S 10 17 30.00 1016 6 10 0.01 0.25
10:39 pm 22:39 Cloudy 64 17.8 63 17.2 96 96 SSW 7 11 30.00 1016 7 11 0.01 0.25
10:53 pm 22:53 Cloudy 64 17.8 63 17.2 96 96 SSW 6 9 30.01 1016 7 11 0.01 0.25
11:04 pm 23:04 Cloudy 63 17.2 63 17.2 100 100 S 6 9 29.97 1015 7 11 0.00 0.00
11:26 pm 23:26 Cloudy 64 17.8 63 17.2 96 96 S 8 13 30.00 1016 7 11 0.00 0.00
11:46 pm 23:46 Cloudy with Light Rain 64 17.8 63 17.2 96 96 SSW 12 19 30.00 1016 5 8 0.00 0.03
11:53 pm 23:53 Cloudy with Light Rain 64 17.8 63 17.2 96 96 W 7 11 30.01 1016 3 5 0.01 0.25

Powered by AerisWeather